Wind_Speed
20 19 19 20 20 20 20 21 22 23 24 24 25 26 27 28 29 30 31 32 33 34 34 35 35 35 36 36 37 37 38 38 38 38 39 39 39 39 39 39 38 38 38
20 20 20 20 20 21 21 22 23 24 24 25 26 27 28 29 30 31 32 33 34 34 35 35 35 36 37 38 38 38 38 38 39 39 39 39 39 39 39 39 39 38 38
20 20 20 20 21 22 23 23 24 24 25 26 27 28 29 30 31 32 33 34 34 35 35 36 36 37 38 38 38 38 39 39 39 39 40 40 39 39 39 39 39 39 39
21 21 21 21 22 23 24 24 25 25 26 27 28 29 30 31 32 33 33 34 35 35 36 36 37 38 38 38 38 39 39 40 40 40 40 40 40 40 40 40 40 40 39
22 22 22 22 23 24 25 25 26 26 27 28 29 30 31 32 33 34 34 35 35 36 36 37 38 38 38 39 39 40 40 40 40 41 41 41 41 41 41 41 41 41 40
23 23 24 24 25 25 26 27 27 28 29 30 30 31 32 33 34 35 35 36 36 37 37 37 38 38 39 39 40 40 41 41 41 42 42 42 42 42 42 42 42 42 41
25 25 26 26 26 27 27 27 28 29 30 31 32 32 33 34 35 35 36 36 37 37 38 38 39 39 40 40 41 41 42 42 43 43 43 43 44 44 44 44 44 44 44
26 26 27 27 28 28 28 29 30 30 31 32 33 33 34 34 35 36 36 37 38 38 38 39 40 40 41 41 42 43 43 43 44 44 44 45 45 45 46 46 46 46 46
28 28 28 29 29 29 30 30 31 31 32 33 34 34 35 35 36 36 37 37 38 38 39 40 41 41 41 42 43 44 44 44 45 45 46 47 48 48 48 48 49 49 49
30 30 30 30 30 31 31 32 32 33 33 34 34 35 36 36 37 37 37 37 38 39 40 41 41 42 43 44 44 45 46 46 47 48 49 50 50 51 51 51 52 52 52
31 31 31 31 31 31 32 33 33 33 34 35 35 36 36 37 38 38 37 38 39 40 41 41 42 43 44 45 46 47 47 48 49 50 52 52 53 53 53 54 54 55 55
32 32 32 32 32 32 33 34 34 34 35 35 36 36 37 38 38 38 39 39 40 41 41 42 43 44 45 46 47 48 49 50 52 53 54 55 55 55 56 56 57 57 57
34 34 33 33 34 34 34 34 34 34 35 36 36 37 38 38 39 40 40 41 41 41 42 43 44 45 46 47 48 49 51 52 54 55 56 57 57 58 58 58 59 59 60
35 35 35 35 34 34 34 35 35 35 36 36 37 37 38 39 40 41 41 42 42 42 42 43 45 46 48 49 50 51 53 55 56 58 59 59 60 60 61 61 62 62 63
36 36 36 35 35 35 35 35 35 35 36 37 37 38 39 39 40 41 42 43 43 43 43 44 46 47 49 50 52 54 56 57 59 61 61 62 62 63 63 63 64 64 65
38 37 37 36 36 35 35 35 35 36 37 37 38 38 39 40 41 42 43 43 44 45 45 45 47 49 51 52 54 56 58 59 62 63 63 63 63 63 64 64 64 64 64
38 37 37 36 36 36 35 35 36 37 37 38 38 39 40 41 41 42 43 44 45 46 46 47 49 51 52 54 56 58 60 62 63 63 63 63 63 63 64 64 64 63 63
38 38 37 37 37 36 36 36 37 37 38 38 39 39 40 41 42 43 43 44 45 46 47 48 50 52 54 56 58 60 61 62 62 63 63 63 63 63 63 63 63 62 62
38 37 37 36 36 36 37 37 37 38 38 38 39 39 40 41 42 43 44 45 46 47 48 50 51 53 56 58 59 60 61 61 62 62 62 62 62 62 62 63 62 61 61
38 37 37 36 37 37 37 37 37 38 38 38 38 39 40 41 42 43 44 45 46 47 50 51 53 55 57 58 59 60 60 61 60 60 61 61 62 62 62 61 60 59 59
38 38 37 37 37 37 37 37 37 38 38 38 38 40 41 41 42 43 44 45 46 49 51 53 55 56 58 58 59 59 60 59 59 60 60 61 61 60 60 59 59 58 56
37 37 36 36 36 36 37 37 37 37 37 38 39 40 41 41 42 43 44 45 48 50 52 54 55 57 58 58 59 59 59 59 59 60 60 60 60 59 59 58 57 56 54
36 36 36 35 35 35 35 36 37 37 37 38 39 39 40 41 42 43 45 46 48 51 53 55 56 57 57 58 59 58 58 59 60 60 60 59 59 58 57 57 55 53 51
35 35 35 34 34 34 35 36 36 37 37 38 38 38 40 41 42 44 45 47 49 51 53 54 56 57 58 58 58 58 58 59 61 62 61 59 57 56 55 55 53 51 48
35 34 34 34 34 34 35 35 36 36 36 37 37 38 39 41 42 43 46 48 50 52 53 54 55 57 58 58 58 58 59 60 60 61 60 58 56 55 54 53 50 47 44
33 33 33 33 34 34 34 34 35 35 36 36 37 38 39 41 42 44 46 48 50 51 52 54 55 57 57 57 58 59 60 61 61 59 58 57 55 53 51 49 46 43 41
Wind_Direction
260 264 268 273 277 281 285 289 293 298 299 301 304 306 308 309 310 311 311 312 313 313 313 313 313 313 313 313 312 311 311 310 309 309 308 306 305 304 302 301 299 298 296
260 264 269 273 277 281 286 290 294 297 299 302 304 306 308 309 310 310 311 312 313 313 313 313 313 313 314 313 313 312 312 311 310 310 309 308 306 305 303 302 300 298 297
261 265 269 273 278 282 287 291 294 297 300 302 304 306 307 309 310 311 312 312 312 313 313 313 313 313 314 314 313 313 312 312 311 310 310 308 307 306 304 302 301 299 297
261 264 269 274 279 283 287 291 294 297 299 301 303 305 307 308 310 311 311 312 312 313 313 313 313 313 314 314 314 313 313 312 311 311 310 308 307 306 304 302 301 299 297
261 265 269 274 280 284 287 289 293 296 298 301 303 305 306 308 309 310 311 311 312 313 313 313 313 313 314 314 314 314 313 313 312 311 310 308 307 306 304 302 300 299 297
261 266 269 274 280 284 287 289 292 295 297 300 302 304 305 307 309 310 310 311 311 312 313 313 313 313 313 313 314 314 314 313 312 311 310 309 308 306 304 302 301 299 297
262 265 269 275 279 283 286 289 292 295 297 299 301 303 304 306 308 309 309 310 311 312 312 313 313 312 312 313 313 313 313 313 312 311 310 309 308 306 304 303 301 299 297
262 266 270 274 279 283 286 289 291 294 297 299 301 302 303 305 306 308 308 309 310 311 311 312 312 312 312 312 312 312 313 312 311 311 310 309 307 306 304 303 301 299 298
263 266 271 275 279 282 285 288 291 294 296 298 300 301 303 304 305 307 307 308 309 310 311 312 312 312 311 311 312 312 312 311 311 310 310 309 307 306 304 302 301 299 297
264 267 271 275 278 281 285 288 290 292 294 297 299 300 302 303 305 306 307 308 308 309 310 310 311 311 311 311 311 311 311 311 310 310 309 308 307 306 304 302 301 299 297
264 267 271 274 277 281 284 287 289 291 293 295 298 299 301 302 304 305 306 307 307 308 309 310 310 310 311 311 311 311 311 311 310 310 309 308 307 306 304 303 301 299 298
264 268 270 273 276 280 283 286 288 290 292 295 297 298 300 302 303 304 305 306 307 308 309 310 310 310 310 311 311 311 310 310 310 309 309 308 307 306 304 303 302 300 299
264 267 270 272 276 279 282 285 287 289 291 294 295 297 299 301 302 303 305 306 306 307 308 309 310 310 310 311 311 311 311 311 310 310 309 308 307 306 305 303 302 301 299
264 267 270 273 275 278 281 284 286 288 291 293 294 296 298 300 301 303 304 305 306 307 308 309 309 310 310 311 311 311 311 311 310 310 310 309 308 307 305 304 303 301 300
264 267 270 272 275 278 280 283 285 288 290 292 294 296 298 299 301 302 304 305 306 307 308 308 309 310 311 311 311 311 312 311 311 311 310 309 308 307 307 306 304 303 301
264 267 269 272 275 277 279 282 284 286 289 292 293 295 297 299 300 302 303 304 305 306 308 308 309 310 310 311 311 312 312 312 312 311 310 310 310 309 308 307 305 304 302
263 266 269 271 274 275 278 281 283 286 289 291 293 294 296 298 300 301 303 304 305 307 308 308 309 310 310 311 312 312 312 312 312 312 312 311 311 311 310 309 307 306 304
262 265 267 270 272 274 277 280 283 286 288 290 292 294 296 298 299 300 302 304 305 307 308 309 310 310 311 312 312 313 313 313 313 313 313 312 312 312 311 310 310 309 307
262 264 266 269 271 274 276 279 283 285 288 289 292 294 296 298 299 300 302 303 305 307 308 310 310 311 312 313 313 313 314 314 314 314 314 314 314 314 313 312 312 311 310
261 263 266 268 270 273 276 279 282 285 288 290 293 294 296 297 298 300 302 303 305 307 309 310 311 312 313 313 313 314 315 314 315 315 315 315 315 315 315 314 314 313 312
260 263 265 267 270 272 275 279 282 285 288 290 292 294 295 297 299 301 302 304 305 307 309 310 312 312 313 313 314 315 315 315 316 316 316 316 316 316 315 315 315 314 314
260 262 264 266 269 272 275 279 283 285 288 290 292 294 295 297 300 301 303 304 306 308 309 310 311 312 313 314 314 315 315 316 316 317 317 317 316 316 316 316 316 316 315
259 262 264 267 270 273 275 279 283 285 288 290 292 293 296 298 300 301 303 305 307 309 310 311 312 313 314 315 315 315 316 317 318 318 318 318 317 317 318 318 318 317 317
259 261 264 267 269 272 276 280 282 285 287 290 292 294 296 298 299 301 304 306 308 309 311 311 312 314 315 315 315 316 317 318 319 319 319 318 318 318 318 319 319 319 319
258 261 263 266 269 272 276 279 283 286 289 291 293 295 297 298 300 303 305 308 309 310 311 312 313 315 316 316 316 317 318 319 319 319 319 318 318 318 319 320 320 320 320
257 259 262 265 269 272 276 280 285 288 289 291 293 295 297 299 301 304 307 309 310 311 312 313 315 316 316 316 317 318 319 319 319 319 319 319 319 319 320 320 320 320 321
Height
5837 5838 5838 5839 5839 5839 5838 5838 5837 5835 5834 5833 5831 5829 5827 5824 5822 5819 5816 5813 5810 5806 5803 5799 5796 5792 5788 5785 5781 5777 5773 5769 5765 5762 5758 5754 5750 5747 5743 5740 5737 5734 5731
5832 5833 5834 5834 5834 5834 5834 5833 5832 5831 5829 5828 5826 5824 5821 5819 5817 5814 5810 5807 5804 5801 5797 5793 5790 5786 5782 5778 5774 5770 5767 5762 5758 5755 5751 5747 5743 5739 5735 5732 5729 5725 5722
5827 5828 5829 5830 5830 5830 5829 5828 5827 5826 5825 5823 5821 5819 5816 5814 5811 5808 5805 5802 5798 5795 5791 5788 5784 5780 5776 5772 5768 5764 5760 5755 5751 5747 5743 5739 5735 5731 5728 5724 5720 5717 5714
5823 5824 5824 5825 5825 5825 5824 5823 5822 5821 5819 5818 5816 5813 5811 5808 5806 5803 5799 5796 5793 5789 5785 5782 5778 5774 5769 5765 5761 5757 5753 5748 5744 5740 5736 5731 5727 5723 5720 5716 5712 5709 5705
5818 5819 5819 5820 5820 5819 5819 5818 5817 5816 5814 5812 5810 5808 5805 5803 5800 5797 5794 5790 5787 5783 5779 5775 5771 5767 5763 5758 5754 5750 5745 5741 5737 5732 5728 5723 5719 5715 5711 5707 5703 5700 5696
5813 5814 5814 5815 5814 5814 5813 5812 5811 5810 5808 5807 5805 5802 5800 5797 5794 5791 5787 5784 5781 5777 5773 5769 5765 5760 5756 5752 5747 5743 5738 5733 5729 5724 5720 5715 5711 5706 5702 5698 5694 5690 5687
5807 5808 5809 5809 5809 5808 5808 5807 5806 5804 5803 5801 5799 5796 5794 5791 5788 5785 5781 5778 5774 5770 5766 5762 5758 5753 5749 5744 5740 5735 5730 5726 5721 5716 5711 5707 5702 5697 5693 5688 5684 5680 5676
5801 5802 5803 5803 5803 5803 5802 5801 5800 5798 5797 5795 5793 5790 5788 5786 5782 5778 5775 5771 5767 5764 5760 5755 5751 5746 5742 5737 5732 5727 5722 5717 5712 5707 5702 5698 5693 5688 5683 5678 5674 5669 5665
5795 5796 5797 5797 5797 5796 5796 5795 5793 5792 5790 5788 5786 5784 5781 5779 5776 5772 5768 5765 5761 5757 5753 5748 5744 5739 5734 5730 5725 5719 5714 5709 5704 5698 5693 5688 5683 5677 5672 5667 5662 5658 5653
5789 5790 5790 5791 5791 5790 5789 5788 5787 5785 5784 5781 5779 5777 5774 5771 5769 5765 5762 5758 5754 5750 5746 5741 5736 5731 5726 5721 5716 5711 5705 5700 5695 5689 5683 5678 5672 5666 5660 5655 5650 5645 5640
5782 5783 5784 5784 5784 5783 5783 5781 5780 5779 5777 5775 5772 5770 5767 5764 5761 5758 5755 5751 5747 5742 5738 5733 5729 5723 5718 5713 5707 5702 5696 5690 5685 5679 5672 5666 5660 5654 5648 5642 5636 5631 5625
5775 5776 5777 5777 5777 5777 5776 5774 5773 5771 5770 5768 5765 5762 5760 5757 5754 5750 5747 5743 5739 5735 5730 5725 5720 5715 5710 5704 5698 5692 5686 5680 5674 5667 5661 5654 5648 5641 5634 5628 5622 5616 5610
5768 5769 5769 5770 5770 5769 5768 5767 5766 5764 5762 5760 5758 5755 5752 5749 5746 5742 5739 5735 5732 5727 5722 5717 5712 5706 5701 5695 5689 5683 5677 5670 5663 5656 5649 5641 5634 5627 5620 5613 5607 5600 5594
5761 5761 5762 5762 5762 5762 5761 5760 5758 5757 5755 5753 5750 5748 5745 5741 5738 5734 5731 5727 5723 5719 5714 5709 5703 5697 5692 5686 5679 5673 5666 5659 5651 5643 5635 5628 5620 5613 5605 5598 5591 5584 5577
5753 5753 5754 5754 5754 5754 5753 5752 5751 5749 5747 5745 5743 5740 5737 5734 5730 5726 5722 5718 5715 5711 5707 5701 5695 5688 5682 5676 5669 5662 5655 5647 5639 5630 5622 5614 5606 5598 5589 5581 5574 5566 5558
5745 5746 5746 5746 5746 5746 5745 5744 5743 5741 5740 5737 5735 5732 5729 5726 5722 5718 5714 5710 5705 5701 5697 5692 5685 5679 5672 5666 5658 5651 5643 5634 5626 5616 5608 5599 5590 5582 5573 5565 5556 5548 5540
5736 5737 5738 5738 5738 5738 5737 5736 5735 5734 5732 5729 5727 5724 5721 5717 5714 5710 5705 5701 5697 5692 5688 5682 5676 5669 5662 5655 5647 5639 5631 5622 5612 5603 5594 5584 5575 5566 5557 5548 5539 5530 5522
5728 5729 5729 5730 5730 5730 5729 5728 5727 5726 5724 5721 5719 5716 5713 5709 5705 5701 5697 5692 5688 5683 5678 5673 5666 5659 5652 5644 5636 5627 5618 5609 5599 5590 5580 5571 5561 5552 5542 5532 5523 5514 5505
5719 5720 5721 5721 5721 5721 5721 5720 5719 5717 5715 5713 5710 5707 5704 5701 5697 5693 5688 5684 5679 5674 5668 5662 5656 5649 5641 5632 5624 5616 5606 5596 5586 5577 5567 5557 5548 5537 5527 5517 5507 5498 5489
5710 5711 5712 5713 5713 5713 5712 5712 5710 5709 5707 5704 5702 5699 5695 5692 5688 5684 5679 5675 5670 5664 5658 5652 5645 5638 5630 5621 5612 5604 5595 5584 5575 5565 5555 5545 5535 5524 5514 5503 5493 5484 5474
5701 5702 5703 5704 5704 5704 5704 5703 5702 5700 5698 5696 5693 5690 5687 5683 5679 5675 5670 5665 5660 5654 5648 5641 5634 5626 5618 5609 5601 5591 5583 5573 5564 5553 5544 5533 5523 5513 5502 5491 5480 5470 5460
5692 5693 5694 5695 5695 5695 5695 5694 5693 5691 5689 5687 5684 5681 5678 5674 5670 5666 5661 5656 5650 5645 5638 5631 5623 5614 5606 5597 5589 5579 5570 5562 5554 5545 5533 5522 5511 5501 5490 5479 5468 5458 5448
5683 5684 5685 5686 5687 5686 5686 5685 5684 5683 5681 5678 5676 5672 5669 5665 5661 5657 5652 5646 5641 5634 5627 5620 5611 5603 5594 5587 5578 5568 5558 5548 5539 5530 5521 5511 5499 5489 5478 5467 5456 5447 5438
5674 5675 5676 5677 5678 5677 5677 5676 5675 5673 5672 5669 5667 5664 5660 5656 5652 5648 5643 5637 5631 5624 5617 5609 5601 5592 5582 5573 5565 5556 5547 5538 5527 5516 5506 5498 5488 5478 5467 5456 5446 5437 5428
5664 5666 5667 5668 5669 5669 5668 5667 5666 5665 5663 5661 5658 5655 5651 5647 5643 5639 5634 5628 5621 5613 5605 5597 5589 5580 5571 5562 5553 5544 5535 5526 5517 5506 5495 5486 5477 5467 5457 5447 5436 5427 5419
5656 5657 5658 5659 5660 5660 5659 5659 5657 5656 5654 5652 5649 5646 5642 5638 5634 5629 5623 5618 5611 5603 5595 5587 5578 5569 5560 5551 5541 5533 5523 5514 5504 5495 5484 5474 5465 5455 5448 5438 5428 5419 5412